RH
24 26 28 28 30 26 24 26 25 31 48 100 50 42 30 40 49 45 42 43 48 55 39 48 55 57 68 70 65 57 49 47 38 22 15 12 11 12 21 47 49 96 67 91
28 28 31 29 32 36 37 37 32 24 46 74 44 56 30 66 57 50 50 47 39 42 37 42 53 60 57 56 60 65 65 60 54 39 25 15 12 10 10 12 26 41 41 79
32 36 40 39 37 39 43 73 54 58 51 60 73 67 63 60 51 82 92 91 74 57 52 72 70 59 57 60 62 60 57 57 56 54 44 30 18 13 11 11 12 34 28 48
38 58 63 61 43 61 34 65 60 58 54 61 60 70 67 48 54 91 100 89 48 52 72 74 65 59 53 52 56 58 58 59 55 52 50 46 34 26 18 14 14 13 13 12
51 49 56 52 50 55 51 62 59 77 66 80 33 94 70 62 76 87 70 53 50 62 69 78 72 66 68 64 56 50 46 54 66 54 47 47 45 39 30 24 21 18 18 22
40 53 50 50 44 44 64 80 93 94 94 92 54 78 52 76 65 74 92 98 93 86 67 60 57 60 59 56 52 52 51 51 65 66 53 46 45 42 37 32 28 26 24 21
28 25 28 28 31 59 70 86 100 93 85 84 55 100 100 80 49 64 84 100 98 76 55 46 34 29 32 30 30 38 40 33 26 27 47 54 49 47 41 33 27 26 24 35
31 65 83 79 52 47 88 100 100 94 74 66 71 82 100 90 53 74 74 78 71 37 21 17 9 7 8 6 6 8 8 8 6 6 6 6 9 13 18 19 18 18 19 22
25 26 68 55 97 92 99 100 100 100 76 76 68 76 86 68 73 81 86 77 52 36 22 14 6 4 5 8 7 8 10 6 6 8 6 6 5 5 5 5 6 7 8 16
42 30 55 80 76 67 68 90 92 100 84 70 77 100 100 94 93 91 85 84 69 36 34 43 43 49 50 42 47 28 24 52 45 14 19 22 26 33 34 26 17 9 8 7
53 73 57 48 69 79 84 83 91 92 79 68 40 57 78 100 100 100 100 93 66 80 96 82 73 66 69 78 89 100 97 80 56 33 31 38 35 60 79 57 28 27 22 16
77 64 66 80 98 92 81 76 31 48 36 23 25 47 92 90 92 100 95 90 100 91 85 88 97 93 100 100 97 100 88 80 70 67 63 64 88 88 97 22 11 9 15 23
49 68 76 82 91 69 47 34 37 31 77 73 100 99 100 100 100 82 94 100 100 88 96 100 100 100 100 100 98 100 98 91 78 71 67 79 97 97 68 54 35 45 23 26
67 75 84 82 41 29 38 96 99 40 46 81 96 84 71 83 100 100 100 100 98 99 100 100 100 100 100 100 100 100 98 98 97 86 91 96 98 94 98 55 68 73 77 85
82 87 69 15 7 10 18 58 64 62 86 97 95 98 89 99 100 100 100 100 99 100 100 100 100 100 100 100 100 99 100 97 99 98 96 93 97 98 98 82 89 86 98 99
86 49 12 11 27 33 46 52 34 44 77 74 78 82 100 100 100 100 98 100 100 100 100 100 100 98 84 81 66 45 87 90 97 100 94 97 100 100 100 97 90 100 99 99
37 7 9 32 52 64 55 54 53 56 72 96 96 100 100 100 100 98 100 100 100 100 100 100 83 77 56 49 50 60 69 90 98 96 98 99 99 100 99 97 96 98 99 86
7 10 20 48 78 69 68 55 61 98 100 100 99 100 100 100 95 100 100 100 100 100 100 100 95 44 36 47 62 68 60 68 78 73 88 99 99 100 99 100 99 94 84 86
12 24 56 65 100 88 70 82 99 100 100 100 100 100 100 99 98 98 100 100 100 100 100 100 94 78 56 36 30 28 28 28 27 34 45 66 98 99 99 100 100 100 99 96
21 56 74 100 100 95 100 98 100 100 100 100 100 100 89 79 90 90 95 95 99 100 100 86 78 72 50 43 48 38 47 49 80 64 47 33 48 94 98 98 100 99 99 100
31 80 82 100 99 92 82 92 98 98 99 98 100 100 86 58 72 70 73 71 75 78 87 85 86 72 75 74 75 70 66 90 91 73 68 73 79 73 77 89 98 98 100 98
86 53 83 100 99 83 96 100 94 88 98 98 100 93 64 48 43 53 61 66 70 79 83 85 89 95 94 84 77 75 61 63 63 59 54 48 43 43 38 46 78 96 98 99
92 74 90 100 96 98 88 100 99 96 100 100 92 50 41 33 38 64 59 67 72 93 99 94 93 92 86 75 65 56 41 35 26 24 21 15 14 14 15 17 16 15 33 51
68 52 60 78 81 98 92 94 100 98 100 100 71 40 28 29 48 62 60 62 82 94 92 88 86 84 77 64 48 37 23 17 13 12 13 14 16 17 14 12 13 13 13 13
62 61 57 63 90 92 81 79 97 92 100 98 46 34 27 27 39 42 47 53 59 62 66 73 80 84 84 68 41 22 15 14 13 14 15 16 16 16 14 11 10 10 9 10
53 66 60 60 75 100 88 86 85 76 99 81 34 23 24 28 35 38 35 38 43 55 56 62 76 78 66 44 25 18 16 14 13 15 14 15 16 17 15 14 13 12 12 11
Wind_Speed
53 53 53 55 52 54 55 53 52 46 49 53 58 61 62 64 62 63 62 64 68 69 66 59 53 53 54 53 54 54 55 56 54 54 54 54 55 56 56 56 54 54 53 51
55 54 53 55 52 51 50 51 51 51 55 58 59 65 60 66 64 65 68 69 70 72 73 65 65 60 56 55 54 54 56 57 58 58 58 58 56 56 56 56 57 58 57 54
56 56 53 52 51 51 48 50 52 56 58 61 64 67 63 60 61 48 50 58 65 63 63 57 53 57 58 56 56 55 55 57 58 59 60 63 62 61 60 57 55 55 58 56
54 46 45 46 50 50 53 54 56 58 61 63 60 68 62 55 56 46 54 59 60 53 49 47 48 51 53 57 58 58 57 56 60 63 63 64 65 65 64 65 64 62 59 59
45 47 48 50 50 50 52 53 57 58 58 59 50 53 54 45 46 47 52 57 44 43 44 45 46 47 48 50 52 55 58 60 60 62 65 66 66 67 66 67 67 65 64 61
49 53 56 54 55 51 48 50 55 56 54 51 41 44 46 38 43 45 48 46 43 43 49 51 45 42 44 47 49 51 51 51 54 63 64 64 67 68 68 68 69 66 64 61
49 50 51 50 49 46 48 48 44 43 43 45 39 27 37 36 42 45 44 44 45 47 48 47 46 44 42 44 47 49 51 53 55 57 61 63 63 65 69 71 72 70 70 66
44 41 42 46 49 46 43 40 41 45 45 48 46 46 37 41 54 48 46 49 49 49 46 45 45 45 45 47 47 49 51 55 58 61 66 69 72 73 76 76 77 76 76 73
48 46 47 44 45 44 41 41 44 49 48 50 47 40 35 44 40 37 39 40 41 43 42 41 42 42 39 40 41 40 41 42 41 42 42 44 46 52 59 64 73 81 85 83
42 45 42 43 45 43 44 44 47 47 46 43 30 14 26 34 38 40 42 39 39 37 32 33 33 30 30 29 29 30 32 36 36 36 32 28 29 31 37 45 51 58 68 82
40 41 41 42 43 44 46 47 40 38 38 39 39 33 29 28 38 42 47 40 33 32 33 32 31 27 26 23 21 24 27 27 25 31 34 33 33 36 38 41 44 52 58 62
40 42 39 42 43 44 36 28 34 36 33 33 36 29 19 25 38 37 29 26 28 27 28 25 17 17 14 17 17 20 20 18 21 24 27 31 35 39 37 34 40 45 49 58
42 42 43 40 35 32 33 31 29 29 29 19 20 26 22 25 23 23 24 25 21 20 18 12 7 5 8 10 12 9 8 12 11 15 16 17 17 20 25 26 22 24 32 39
41 43 37 27 28 29 31 21 20 20 21 16 20 25 24 22 21 20 19 12 10 8 11 13 7 6 4 3 10 8 13 13 15 12 17 24 21 18 18 14 8 10 17 23
39 29 26 21 22 25 23 26 26 22 16 19 17 23 20 22 21 17 9 4 7 9 11 13 2 6 2 2 6 7 8 7 15 17 13 18 22 20 14 10 13 11 14 22
28 22 21 19 16 15 16 17 19 19 20 20 20 24 21 20 14 5 3 6 6 5 9 10 10 6 4 4 7 9 10 11 11 16 18 10 15 21 15 13 11 10 9 3
23 21 19 13 15 15 15 13 17 19 19 20 23 19 10 9 6 2 4 4 3 5 6 9 6 6 6 6 7 9 11 14 13 15 12 12 7 5 18 10 12 15 18 19
21 18 17 12 15 17 15 12 15 19 17 15 10 8 9 7 7 2 4 4 4 5 4 4 7 5 5 6 5 9 12 14 15 17 14 10 12 6 6 13 20 17 16 21
19 17 15 13 13 14 10 12 13 9 5 5 8 9 10 7 4 3 4 4 3 1 2 2 4 5 6 5 6 8 10 11 13 17 17 18 11 3 14 11 11 27 32 25
18 18 15 11 9 11 10 13 13 11 8 6 7 10 4 2 2 3 4 3 1 1 1 2 4 6 4 7 7 7 9 13 15 14 14 14 17 13 5 1 9 13 11 11
19 20 16 14 14 15 14 14 14 12 11 9 9 8 4 4 3 1 1 1 2 3 4 6 5 6 9 8 9 10 10 11 9 10 12 13 14 16 18 17 14 10 8 4
17 21 19 20 19 18 15 15 14 14 13 10 8 6 5 4 3 2 2 2 4 5 4 4 6 7 7 7 8 10 11 9 11 12 12 13 14 15 16 16 17 18 18 16
20 18 19 17 20 17 17 16 14 13 12 10 9 7 6 6 4 3 3 3 5 6 6 6 7 8 6 7 8 7 8 9 10 10 11 12 13 13 14 15 15 15 15 17
19 22 26 25 23 22 20 19 15 13 12 12 12 9 7 6 5 5 4 2 4 5 5 6 6 6 6 6 6 7 9 10 12 13 14 15 16 17 18 18 18 19 19 20
19 23 23 23 23 24 24 23 21 15 15 15 13 12 11 9 8 6 4 2 2 1 3 4 6 7 7 8 8 9 8 9 12 14 15 16 18 19 21 23 24 24 25 25
24 25 23 22 24 21 21 23 22 18 17 18 16 15 14 12 9 7 5 4 3 3 5 6 7 9 9 8 9 10 11 12 12 13 16 19 23 25 27 28 26 26 27 30
Wind_Direction
286 288 292 294 291 292 293 290 291 286 274 271 277 281 285 282 283 290 286 284 284 284 268 270 278 272 269 266 263 258 257 258 256 253 252 249 250 247 246 246 251 245 253 252
282 288 289 284 285 286 285 285 285 285 281 277 275 270 281 275 283 286 284 280 278 279 281 279 275 273 271 269 265 262 260 259 258 256 254 253 252 252 254 251 249 246 250 250
284 287 284 283 283 282 283 282 282 282 278 278 280 279 277 279 286 281 279 274 279 278 279 278 274 271 271 268 265 264 263 260 259 257 255 255 252 250 249 248 247 248 251 247
285 282 277 277 279 283 285 284 283 282 284 284 281 287 281 285 278 277 264 267 278 274 274 272 271 269 267 268 268 267 264 259 257 257 255 253 253 253 251 251 251 250 247 248
282 279 279 276 282 282 285 281 284 285 285 282 286 284 288 282 277 270 263 268 273 281 280 280 274 272 269 267 264 263 263 262 258 256 254 254 253 252 251 251 249 246 248 251
277 279 279 282 285 287 287 287 281 279 279 279 287 285 287 289 285 283 281 277 274 278 279 280 277 272 268 266 264 263 263 262 262 258 255 254 253 253 253 252 251 250 247 245
279 279 280 284 282 283 283 284 281 279 282 287 288 292 283 276 277 273 275 272 276 280 282 283 282 279 275 271 266 262 261 261 262 259 257 255 253 252 252 250 250 249 248 244
280 283 289 286 291 290 282 279 282 287 286 286 281 277 261 263 279 268 272 282 279 280 281 281 279 276 274 271 270 267 264 261 260 259 257 255 252 250 249 247 246 245 244 244
284 281 280 286 291 291 279 282 289 285 286 287 287 289 275 279 280 275 274 275 282 281 282 282 278 275 274 271 273 271 269 269 265 263 262 261 259 256 253 250 247 243 242 241
283 281 280 285 281 281 284 283 285 285 287 287 289 264 262 280 285 283 282 291 294 296 294 288 283 283 278 275 278 276 275 273 271 260 259 258 255 259 257 252 248 244 240 237
286 284 283 279 284 283 285 288 283 276 273 282 282 269 258 258 264 269 273 286 295 294 295 295 293 287 277 275 276 292 289 287 275 265 266 266 266 263 265 260 257 251 244 238
281 282 284 281 284 286 284 282 280 281 278 276 269 274 278 268 261 265 278 284 291 295 302 299 286 273 268 284 292 299 299 291 280 268 259 260 264 266 268 268 271 259 244 239
280 284 287 286 280 273 276 275 276 268 266 278 259 256 251 264 278 268 270 284 290 297 300 287 267 258 257 301 312 328 330 339 295 278 252 240 280 291 263 273 279 244 231 234
280 283 286 279 270 272 265 256 264 269 266 266 264 259 256 263 275 272 280 278 300 302 351 336 234 241 132 10 10 25 348 10 14 321 290 267 283 315 277 267 261 208 204 204
279 282 269 271 265 270 266 270 274 270 266 271 266 270 267 269 282 277 270 309 301 342 357 342 231 163 154 277 339 338 8 24 27 15 344 267 265 325 293 256 245 236 217 216
273 265 266 261 259 259 266 271 270 263 268 276 269 263 278 279 271 222 278 305 313 3 355 357 23 40 358 336 337 346 355 345 16 35 1 355 241 279 300 266 236 258 218 62
260 258 257 237 253 268 278 263 259 277 289 273 268 274 268 258 216 229 293 301 325 6 346 344 350 355 4 348 342 358 4 359 0 17 32 48 56 347 253 266 230 205 208 208
252 248 238 237 277 283 282 273 280 286 281 271 247 255 246 247 210 270 256 284 312 333 345 348 345 1 5 1 346 352 358 6 17 15 7 25 49 50 254 235 244 215 221 228
240 232 240 263 279 274 286 281 289 304 296 244 237 247 263 205 185 203 234 245 246 282 321 330 356 7 10 3 15 359 352 1 6 8 4 2 9 347 70 91 220 237 254 239
234 230 239 266 256 259 288 278 284 302 289 278 257 253 193 224 253 212 233 222 168 59 33 50 36 17 3 18 21 24 23 22 15 3 1 359 360 20 31 47 122 136 133 194
241 238 243 251 260 249 252 271 275 294 290 279 282 231 195 220 246 253 203 139 72 65 48 48 39 41 41 31 30 42 43 40 18 14 11 17 16 10 357 0 4 357 356 228
252 244 248 254 264 262 256 273 276 279 289 268 253 219 222 209 214 219 216 134 99 88 72 72 67 61 58 55 44 48 47 26 27 24 26 28 23 17 21 12 357 345 343 340
245 234 240 253 261 262 252 257 257 265 265 251 234 228 221 202 193 206 207 132 92 75 78 73 74 65 50 48 43 33 18 2 5 6 2 5 2 1 359 356 356 355 347 340
249 245 245 243 252 257 249 247 249 257 247 242 223 217 208 212 195 207 203 134 85 69 65 48 42 28 10 4 4 357 349 351 352 356 353 351 345 342 344 342 337 333 328 324
241 247 249 247 250 251 247 252 238 250 236 221 216 216 212 210 205 200 191 165 112 21 357 350 335 324 325 327 328 328 331 330 333 338 342 344 343 340 336 331 328 325 321 318
244 247 252 249 246 256 250 234 228 239 232 216 215 218 216 204 201 208 212 223 240 280 307 305 301 298 301 300 302 305 309 316 318 324 327 327 328 328 327 325 321 317 315 313